Location: Canale San Bovo
(46.1500°N, 11.7167°E)
Time: 23:59:39
(UTC+00:00)

Daily predictions for brighter satellites

Satellite Brightness Start Highest point End
(mag) Time Altitude Azimuth Time Altitude Azimuth Time Altitude Azimuth
Cosmos 1844 3.7 17:26:45 10° NNW 17:32:32 73° ENE 17:38:14 10° SSE
Cosmos 2278 Rocket 3.5 17:30:29 10° N 17:34:54 22° NE 17:39:15 10° E
SJ 16-02 2.9 17:35:11 10° N 17:38:17 18° NE 17:41:21 10° E
FALCON 9 DEB 4.0 17:35:22 10° NW 17:38:18 33° NNE 17:41:14 10° E
SAR-Lupe-4 4.5 17:35:48 10° NE 17:38:56 28° E 17:42:04 10° SSE
Meteor 1-5 Rocket 4.4 17:34:58 10° SSE 17:40:08 49° E 17:45:31 10° NNE
IRS-1C Rocket 4.1 17:37:31 10° SSE 17:42:47 86° ENE 17:48:06 10° NNW
SL-4 R/B 1.6 17:39:54 10° WNW 17:43:30 84° NNE 17:46:56 10° ESE
COSMO-SKYMED 1 3.0 17:39:39 10° N 17:43:59 68° WNW 17:48:17 10° SSW
Cosmos 1536 4.1 17:41:12 10° SE 17:44:04 19° E 17:46:56 10° NE
Cosmos 1633 Rocket 4.5 17:41:28 10° SSW 17:45:41 44° WNW 17:49:57 10° N
FALCON 9 DEB 3.7 17:43:16 10° NW 17:46:18 38° NNE 17:49:12 11° E
SeaSat 1 3.6 17:42:42 10° NE 17:46:35 23° ESE 17:50:26 10° SSE
Cosmos 2242 Rocket 3.6 17:43:27 10° N 17:47:56 66° E 17:52:20 10° SSE
MOS 1 Rocket 4.4 17:44:10 10° N 17:49:14 56° WNW 17:54:29 10° SSW
Gbstr 26 Del rocket 3.9 17:46:29 10° WNW 17:50:44 45° N 17:55:46 11° E
Cosmos 2333 Rocket 2.4 17:47:43 10° S 17:53:13 54° ESE 17:58:48 10° NE
Abrixas rocket 1.4 17:52:13 10° WNW 17:54:42 82° NNE 17:56:41 14° ESE
Meteor 2-4 Rocket 3.9 17:53:00 10° NNW 17:58:55 87° W 18:04:53 10° S
SAR-Lupe-1 4.2 17:55:55 10° NNE 17:59:26 51° E 18:02:55 10° S
Helios 1A Rocket 3.0 17:55:30 10° SSE 17:59:26 54° ENE 18:03:22 10° N
Cosmos 2322 Rocket 3.6 17:54:20 10° WSW 17:59:34 39° NW 18:04:51 10° NNE
Lacrosse 4 Rocket 1.5 17:56:13 10° SSW 18:00:34 63° ESE 18:05:01 10° NE
GP-B 3.1 17:57:03 10° SSE 18:01:24 61° E 18:05:48 10° N
DELTA 2 R/B (1) 4.5 17:56:36 10° SW 18:01:35 34° SSE 18:05:50 13° ESE
ARGOS 3.1 17:58:09 10° SSE 18:03:35 77° ENE 18:09:01 10° N
Cosmos 192 4.3 18:02:08 10° SSW 18:07:00 71° ESE 18:11:56 10° NNE
Cosmos 1869 Rocket 3.7 18:03:45 10° S 18:07:58 51° E 18:12:17 10° NNE
CZ-4 R/B 2.1 18:05:15 10° S 18:09:03 55° W 18:12:57 10° NNW
Cosmos 2219 Rocket 2.2 18:04:12 10° SSW 18:09:42 63° ESE 18:15:16 10° NNE
CZ-4B R/B 3.5 18:07:45 10° N 18:10:28 28° WNW 18:13:12 10° SW
FALCON 9 DEB 3.0 18:11:55 10° NW 18:15:03 59° NNE 18:16:47 23° E
ERS-2 2.0 18:11:26 10° NNE 18:15:07 84° ESE 18:18:47 10° SSW
CZ-2C R/B 2.6 18:10:09 10° NNE 18:15:33 63° E 18:20:48 10° S
Cosmos 1238 Rocket 3.4 18:12:35 10° SSE 18:16:12 31° E 18:19:20 10° NNE
Cosmos 1689 Rocket 2.1 18:13:48 10° N 18:16:42 77° WNW 18:19:35 10° SSW
SL-08 RB Rocket 3.6 18:14:00 10° SSE 18:18:31 76° ENE 18:23:07 10° N
Cosmos 1378 3.4 18:15:37 10° N 18:19:11 43° ENE 18:22:43 10° SSE
USA 305 3.7 18:16:10 10° NW 18:20:12 39° NNE 18:22:40 20° ENE
NOSS 3-2 (A) 3.6 18:17:03 10° S 18:22:18 45° ESE 18:28:14 10° NE
CREW DRAGON DEMO-1 DEB 2.6 18:20:03 10° SW 18:22:50 65° SSE 18:23:59 31° ENE
HJ-1C 3.8 18:19:53 10° S 18:23:10 62° W 18:26:27 10° NNW
COSMOS 2428 2.6 18:18:48 10° SSW 18:24:26 69° ESE 18:30:07 10° NNE
FALCON 9 DEB 3.1 18:21:21 10° NW 18:24:31 60° NNE 18:25:51 30° E
Cosmos 1733 Rocket 3.9 18:21:46 10° SE 18:25:22 26° E 18:29:02 10° NNE
SL-8 Rocket 4.0 18:27:06 10° S 18:33:20 87° W 18:39:34 10° N
USA 307 3.6 18:29:55 10° NW 18:34:01 42° NNE 18:35:52 26° ENE
CENTAUR R/B 2.9 18:28:47 10° S 18:34:01 37° ESE 18:40:10 10° NE
USA 306 3.5 18:31:11 10° NW 18:35:18 44° NNE 18:37:06 28° ENE
NOSS 0 Rocket 4.1 18:30:03 10° S 18:35:50 45° ESE 18:41:39 10° NE
ATLAS CENTAUR R/B 3.8 18:33:46 10° W 18:36:19 18° NW 18:38:54 10° N
Cosmos 1898 Rocket 4.3 18:32:51 10° N 18:37:33 32° ENE 18:39:11 27° E
Cosmos 1066 Rocket 4.2 18:31:52 10° N 18:37:40 78° ENE 18:43:31 10° SSE
Cosmos 1743 3.1 18:36:20 10° SSE 18:39:56 38° E 18:43:35 10° NNE
Cosmos 1666 4.0 18:38:17 10° SSW 18:41:49 41° WNW 18:45:24 10° N
CSL-04 Rocket 4.2 18:39:07 10° S 18:44:36 63° WSW 18:50:03 10° NNW
USA 308 3.4 18:40:44 10° NW 18:44:52 46° NNE 18:46:15 33° ENE
Cosmos 2322 4.4 18:39:51 10° SW 18:45:29 58° WNW 18:51:08 10° NNE
Meteor 1-23 Rocket 4.1 18:42:27 10° N 18:48:05 73° ENE 18:53:45 10° SSE
GRACE-FO 1 4.4 18:46:49 15° S 18:49:44 70° E 18:53:24 10° N
BREEZE-M DEB (TANK) 2.6 18:47:48 10° SW 18:50:06 64° SSE 18:50:06 64° SSE
GRACE-FO 2 4.4 18:47:14 15° S 18:50:09 71° E 18:53:50 10° N
Cosmos 2366 rocket 4.2 18:45:15 10° SSW 18:51:35 79° W 18:58:00 10° N
ASTEX 1 3.3 18:47:07 10° N 18:51:59 68° E 18:56:51 10° S
H-2A R/B 4.1 18:47:18 10° SSW 18:52:04 30° W 18:56:49 10° NNW
SJ-6B 2.7 18:52:44 29° SSE 18:54:45 74° ENE 18:58:45 10° N
Cosmos 1674 Rocket 4.0 18:51:19 10° N 18:55:15 39° ENE 18:55:15 39° ENE
Cosmos 990 Rocket 4.1 18:53:06 10° NNW 18:58:11 53° ENE 18:59:41 40° ESE
Ariane Rocket 3.0 18:55:34 27° SE 18:58:16 64° ENE 19:03:20 10° N
USA 186 2.2 18:59:37 44° NW 18:59:37 44° NW 19:01:43 10° NNW
Cosmos 2221 Rocket 3.4 18:55:01 10° N 18:59:27 84° E 19:02:11 23° SSE
OBJECT-B 0.9 19:02:10 62° NNE 19:02:10 62° NNE 19:04:57 10° N
Cosmos 1763 Rocket 3.8 18:56:48 10° S 19:01:48 43° ESE 19:06:48 10° NE
NOSS 3-2 (C) 3.4 18:58:37 10° SSW 19:03:59 52° ESE 19:08:10 20° NE
SL-08 R/B 4.5 18:58:10 10° S 19:04:36 82° E 19:11:07 10° N
Meteor 1-11 Rocket 4.3 19:00:05 10° SSW 19:05:41 59° WNW 19:11:12 10° N
Cosmos 1378 Rocket 4.0 19:05:36 10° N 19:09:20 44° NE 19:09:20 44° NE
Cosmos 468 Rocket 4.0 19:08:15 10° S 19:13:27 57° ESE 19:18:37 10° NNE
FALCON 9 DEB 3.9 19:11:11 10° WNW 19:13:45 44° WSW 19:13:45 44° WSW
Cosmos 1943 Rocket 3.5 19:10:53 10° N 19:15:25 24° NE 19:15:25 24° NE
Cosmos 1821 Rocket 3.8 19:09:36 10° S 19:15:48 73° E 19:21:56 10° NNE
Cosmos 2237 Rocket 2.1 19:11:11 10° SSW 19:16:50 69° ESE 19:22:31 10° NNE
SJ 16-02 2.0 19:12:53 10° NNW 19:17:12 55° WSW 19:19:19 28° S
Cosmos 1727 Rocket 4.2 19:11:15 10° NNW 19:17:24 69° W 19:23:34 10° S
Cosmos 1544 3.4 19:14:07 10° SSW 19:17:44 65° W 19:21:24 10° N
MOS 1 4.2 19:15:42 25° SSE 19:19:08 87° WSW 19:24:51 10° NNW
Cosmos 2278 Rocket 2.3 19:13:55 10° NNW 19:19:35 75° WSW 19:22:11 33° SSE
Cosmos 1536 4.5 19:16:35 10° SW 19:20:14 34° WNW 19:23:54 10° N
USA 81 3.9 19:16:18 10° S 19:21:33 84° E 19:26:51 10° N
Cosmos 1000 Rocket 4.4 19:15:50 10° N 19:22:10 79° E 19:25:17 32° SSE
SL-4 R/B 3.9 19:20:16 10° W 19:22:36 17° SW 19:22:57 17° SW
Meteor 1-21 4.4 19:17:27 10° N 19:23:01 50° ENE 19:23:05 50° ENE
SeaSat 1 3.1 19:19:31 10° NNE 19:24:22 56° WNW 19:29:11 10° SW
SPOT 3 Rocket 3.6 19:24:24 56° ENE 19:24:24 56° ENE 19:29:31 10° N
Cosmos 2239 Rocket 4.4 19:19:14 10° S 19:25:29 72° E 19:31:44 10° NNE
Cosmos 1934 Rocket 4.0 19:30:07 52° ENE 19:30:07 52° ENE 19:35:37 10° NNE
Resurs 01 Rocket 2.4 19:31:41 42° NNE 19:31:41 42° NNE 19:34:47 10° N
SME Rocket 4.2 19:25:08 10° NNE 19:32:27 69° WNW 19:37:15 10° SSW
USA 234 3.1 19:33:09 46° ENE 19:35:05 67° SE 19:41:35 10° SW
Cosmos 2333 Rocket 4.1 19:32:53 10° WSW 19:37:48 29° NW 19:42:47 10° N
Gbstr 26 Del rocket 3.4 19:33:07 10° WNW 19:38:02 87° SSW 19:38:19 81° SE
Lacrosse 4 Rocket 4.0 19:36:18 10° W 19:39:40 21° NW 19:43:05 10° N
Cosmos 1937 Rocket 3.5 19:35:08 10° NNW 19:39:49 68° NNE 19:39:49 68° NNE
Cosmos 2123 Rocket 3.8 19:34:26 10° N 19:40:41 69° E 19:41:02 67° ESE
USA 238 DEB 3.8 19:37:26 10° SW 19:44:00 72° NW 19:50:56 10° NE
USA 238 3.8 19:37:32 10° SW 19:44:06 72° NW 19:51:02 10° NE
Resurs 1-3 4.1 19:45:27 59° W 19:45:27 59° W 19:49:39 10° NNW
DELTA 2 R/B (1) 4.3 19:42:12 10° WSW 19:46:36 40° SSW 19:46:36 40° SSW
Cosmos 2219 Rocket 4.3 19:49:33 10° WSW 19:54:06 25° NW 19:58:44 10° N
Terra 4.3 20:00:53 12° NNE 20:00:53 12° NNE 20:01:20 10° NNE
USA 305 4.4 19:56:08 10° WNW 19:58:46 35° WNW 19:58:46 35° WNW
Cosmos 1980 4.3 19:56:12 10° SW 20:01:42 53° WNW 20:07:15 10° NNE
NOSS 3-2 (A) 4.5 20:07:41 10° WSW 20:13:10 42° NW 20:19:30 10° NNE
Cosmos 2369 Rocket 3.6 20:14:58 10° NNW 20:18:00 28° N 20:18:00 28° N
CENTAUR R/B 3.2 20:18:32 10° WSW 20:24:25 52° NW 20:31:30 10° NE
Cosmos 1943 Rocket 3.8 20:54:06 10° NNW 20:56:57 30° NW 20:56:57 30° NW
Cosmos 2237 Rocket 4.3 20:56:53 10° W 21:01:27 24° NW 21:06:01 10° N
USA 234 4.5 21:20:31 34° WNW 21:20:31 34° WNW 21:24:16 10° W
